When you browse on this site, cookies collect data to enhance your experience and personalize the content and advertising you see.
Visit our Privacy Policy to learn more. By continuing to use the site, you agree to this use of cookies and data.
  • In Hungary
  • List of Countries
  • For 7 days
  • Water Temperature
  • Satellite Maps
  • Weather Map
  • News
  • Weather Widgets
  • user-avatar
    Login

    Hourly Weather Oliva

    Today, 17 November, Saturday

    Time Temperature Precipitation Wind Pressure Humidity
    00:00 +15°C° 0 mm 4 mps 761 mmHg 97%
    01:00 +15°C° 0.5 mm 4 mps 760 mmHg 96%
    02:00 +15°C° 0.5 mm 4 mps 760 mmHg 96%
    03:00 +15°C° 0.5 mm 4 mps 760 mmHg 96%
    04:00 +15°C° 0.4 mm 4 mps 760 mmHg 96%
    05:00 +15°C° 0.4 mm 4 mps 760 mmHg 96%
    06:00 +15°C° 0.4 mm 4 mps 760 mmHg 96%
    07:00 +15°C° 0.2 mm 4 mps 759 mmHg 94%
    08:00 +15°C° 0.2 mm 4 mps 759 mmHg 93%
    09:00 +17°C° 0.2 mm 4 mps 759 mmHg 91%
    10:00 +17°C° 0.1 mm 4 mps 759 mmHg 88%
    11:00 +17°C° 0.1 mm 4 mps 759 mmHg 85%
    12:00 +17°C° 0.1 mm 5 mps 759 mmHg 82%
    13:00 +17°C° 0 mm 5 mps 758 mmHg 81%
    14:00 +17°C° 0 mm 5 mps 758 mmHg 81%
    15:00 +17°C° 0 mm 5 mps 757 mmHg 80%
    16:00 +17°C° 0 mm 4 mps 758 mmHg 84%
    17:00 +15°C° 0 mm 4 mps 758 mmHg 89%
    18:00 +14°C° 0 mm 4 mps 758 mmHg 93%
    19:00 +14°C° 0.2 mm 3 mps 758 mmHg 94%
    20:00 +14°C° 0.2 mm 3 mps 757 mmHg 95%
    21:00 +14°C° 0.2 mm 3 mps 757 mmHg 96%
    22:00 +14°C° 0.1 mm 3 mps 757 mmHg 96%
    23:00 +14°C° 0.1 mm 3 mps 757 mmHg 96%

    Tomorrow, 18 November, Sunday

    Time Temperature Precipitation Wind Pressure Humidity
    00:00 +14°C° 0.1 mm 2 mps 756 mmHg 96%
    01:00 +13°C° 0.1 mm 3 mps 756 mmHg 96%
    02:00 +13°C° 0.1 mm 3 mps 755 mmHg 95%
    03:00 +13°C° 0.1 mm 3 mps 755 mmHg 95%
    04:00 +13°C° 0.1 mm 3 mps 755 mmHg 95%
    05:00 +13°C° 0.1 mm 3 mps 754 mmHg 95%
    06:00 +13°C° 0.1 mm 3 mps 754 mmHg 95%
    07:00 +14°C° 0.2 mm 3 mps 754 mmHg 93%
    08:00 +14°C° 0.2 mm 3 mps 754 mmHg 92%
    09:00 +14°C° 0.2 mm 4 mps 754 mmHg 90%
    10:00 +15°C° 0.1 mm 4 mps 754 mmHg 89%
    11:00 +15°C° 0.1 mm 5 mps 753 mmHg 88%
    12:00 +15°C° 0.1 mm 5 mps 753 mmHg 87%
    13:00 +15°C° 0.2 mm 5 mps 753 mmHg 88%
    14:00 +15°C° 0.2 mm 6 mps 752 mmHg 88%
    15:00 +15°C° 0.2 mm 6 mps 752 mmHg 88%
    16:00 +15°C° 0.4 mm 6 mps 752 mmHg 90%
    17:00 +14°C° 0.4 mm 6 mps 752 mmHg 92%
    18:00 +14°C° 0.4 mm 6 mps 752 mmHg 94%
    19:00 +14°C° 0.6 mm 6 mps 751 mmHg 94%
    20:00 +14°C° 0.6 mm 6 mps 751 mmHg 94%
    21:00 +14°C° 0.6 mm 6 mps 751 mmHg 95%
    22:00 +14°C° 0.9 mm 6 mps 751 mmHg 95%
    23:00 +14°C° 0.9 mm 7 mps 750 mmHg 96%

    Day after tomorrow, 19 November, Monday

    Time Temperature Precipitation Wind Pressure Humidity
    00:00 +14°C° 0.9 mm 7 mps 750 mmHg 96%
    01:00 +14°C° 1 mm 6 mps 749 mmHg 96%
    02:00 +14°C° 1 mm 6 mps 749 mmHg 96%
    03:00 +14°C° 1 mm 6 mps 749 mmHg 96%
    04:00 +14°C° 1.2 mm 5 mps 748 mmHg 96%
    05:00 +14°C° 1.2 mm 5 mps 748 mmHg 96%
    06:00 +14°C° 1.2 mm 5 mps 747 mmHg 95%
    07:00 +14°C° 1.8 mm 5 mps 747 mmHg 96%
    08:00 +14°C° 1.8 mm 5 mps 747 mmHg 96%
    09:00 +14°C° 1.8 mm 5 mps 747 mmHg 97%
    10:00 +14°C° 2.1 mm 6 mps 747 mmHg 96%
    11:00 +14°C° 2.1 mm 6 mps 746 mmHg 96%
    12:00 +14°C° 2.1 mm 7 mps 746 mmHg 96%
    13:00 +14°C° 1.5 mm 7 mps 746 mmHg 96%
    14:00 +13°C° 1.5 mm 8 mps 746 mmHg 95%
    15:00 +13°C° 1.5 mm 9 mps 745 mmHg 95%
    16:00 +13°C° 1.1 mm 9 mps 745 mmHg 95%
    17:00 +13°C° 1.1 mm 10 mps 746 mmHg 94%
    18:00 +13°C° 1.1 mm 10 mps 746 mmHg 93%
    19:00 +13°C° 0.5 mm 9 mps 746 mmHg 92%
    20:00 +13°C° 0.5 mm 8 mps 747 mmHg 91%
    21:00 +14°C° 0.5 mm 7 mps 747 mmHg 90%
    22:00 +14°C° 0.2 mm 6 mps 747 mmHg 89%
    23:00 +14°C° 0.2 mm 6 mps 747 mmHg 88%

    20 November, Tuesday

    Time Temperature Precipitation Wind Pressure Humidity
    00:00 +14°C° 0.2 mm 5 mps 747 mmHg 87%
    01:00 +14°C° 0.1 mm 5 mps 748 mmHg 87%
    02:00 +14°C° 0.1 mm 5 mps 748 mmHg 87%
    03:00 +13°C° 0.1 mm 5 mps 748 mmHg 87%
    04:00 +13°C° 0.1 mm 6 mps 748 mmHg 86%
    05:00 +12°C° 0.1 mm 7 mps 748 mmHg 86%
    06:00 +12°C° 0.1 mm 8 mps 748 mmHg 86%
    07:00 +12°C° 0 mm 8 mps 748 mmHg 81%
    08:00 +13°C° 0 mm 8 mps 748 mmHg 77%
    09:00 +15°C° 0 mm 8 mps 749 mmHg 73%
    10:00 +16°C° 0 mm 7 mps 749 mmHg 69%
    11:00 +17°C° 0 mm 6 mps 749 mmHg 66%
    12:00 +17°C° 0 mm 6 mps 749 mmHg 62%
    13:00 +17°C° 0.1 mm 6 mps 749 mmHg 60%
    14:00 +17°C° 0.1 mm 5 mps 748 mmHg 59%
    15:00 +17°C° 0.1 mm 5 mps 748 mmHg 57%
    16:00 +16°C° 0.1 mm 5 mps 749 mmHg 62%
    17:00 +15°C° 0.1 mm 5 mps 749 mmHg 67%
    18:00 +14°C° 0.1 mm 5 mps 749 mmHg 73%
    19:00 +14°C° 0.1 mm 5 mps 749 mmHg 74%
    20:00 +14°C° 0.1 mm 5 mps 750 mmHg 75%
    21:00 +14°C° 0.1 mm 5 mps 750 mmHg 76%
    22:00 +14°C° 0.1 mm 5 mps 750 mmHg 76%
    23:00 +13°C° 0.1 mm 6 mps 751 mmHg 77%

    21 November, Wednesday

    Time Temperature Precipitation Wind Pressure Humidity
    00:00 +12°C° 0.1 mm 7 mps 751 mmHg 77%
    01:00 +13°C° 0.1 mm 6 mps 751 mmHg 79%
    02:00 +11°C° 0.1 mm 6 mps 752 mmHg 81%
    03:00 +12°C° 0.1 mm 5 mps 752 mmHg 84%
    04:00 +12°C° 0 mm 4 mps 752 mmHg 82%
    05:00 +12°C° 0 mm 3 mps 752 mmHg 81%
    06:00 +13°C° 0 mm 2 mps 753 mmHg 80%
    07:00 +12°C° 0 mm 3 mps 753 mmHg 76%
    08:00 +13°C° 0 mm 3 mps 754 mmHg 73%
    09:00 +14°C° 0 mm 3 mps 755 mmHg 70%
    10:00 +16°C° 0 mm 3 mps 755 mmHg 65%
    11:00 +17°C° 0 mm 4 mps 755 mmHg 60%
    12:00 +18°C° 0 mm 4 mps 755 mmHg 56%
    13:00 +18°C° 0 mm 4 mps 755 mmHg 52%
    14:00 +18°C° 0 mm 4 mps 755 mmHg 47%
    15:00 +19°C° 0 mm 4 mps 755 mmHg 43%
    16:00 +17°C° 0 mm 4 mps 755 mmHg 48%
    17:00 +15°C° 0 mm 5 mps 756 mmHg 53%
    18:00 +13°C° 0 mm 5 mps 756 mmHg 58%
    19:00 +13°C° 0 mm 5 mps 757 mmHg 61%
    20:00 +12°C° 0 mm 5 mps 757 mmHg 64%
    21:00 +12°C° 0 mm 5 mps 758 mmHg 67%
    22:00 +10°C° 0 mm 5 mps 758 mmHg 69%
    23:00 +10°C° 0 mm 5 mps 758 mmHg 72%

    22 November, Thursday

    Time Temperature Precipitation Wind Pressure Humidity
    00:00 +11°C° 0 mm 4 mps 759 mmHg 74%
    01:00 +10°C° 0 mm 4 mps 759 mmHg 75%
    02:00 +10°C° 0 mm 4 mps 759 mmHg 75%
    03:00 +10°C° 0 mm 3 mps 759 mmHg 76%
    04:00 +10°C° 0 mm 3 mps 759 mmHg 76%
    05:00 +10°C° 0 mm 3 mps 759 mmHg 76%
    06:00 +10°C° 0 mm 2 mps 759 mmHg 75%
    07:00 +12°C° 0 mm 2 mps 760 mmHg 69%
    08:00 +13°C° 0 mm 2 mps 760 mmHg 63%
    09:00 +15°C° 0 mm 2 mps 760 mmHg 57%
    10:00 +16°C° 0 mm 3 mps 760 mmHg 58%
    11:00 +17°C° 0 mm 3 mps 760 mmHg 58%
    12:00 +17°C° 0 mm 4 mps 760 mmHg 58%
    13:00 +18°C° 0 mm 4 mps 760 mmHg 57%
    14:00 +18°C° 0 mm 4 mps 760 mmHg 57%
    15:00 +18°C° 0 mm 4 mps 760 mmHg 56%
    16:00 +17°C° 0 mm 3 mps 760 mmHg 62%
    17:00 +14°C° 0 mm 3 mps 761 mmHg 68%
    18:00 +14°C° 0 mm 2 mps 761 mmHg 75%
    19:00 +14°C° 0 mm 2 mps 761 mmHg 77%
    20:00 +13°C° 0 mm 2 mps 762 mmHg 80%
    21:00 +13°C° 0 mm 2 mps 762 mmHg 83%
    22:00 +12°C° 0 mm 2 mps 762 mmHg 83%
    23:00 +11°C° 0 mm 3 mps 762 mmHg 84%
    Show more